Tracking 19170 objects as of 22-May-2018
HD Live streaming from Space Station
objects crossing your sky now

INSAT 1C

Track INSAT 1C now!
INSAT 1C is classified as:


NORAD ID: 19330
Int'l Code: 1988-063A
Perigee: 35,764.8 km
Apogee: 35,827.7 km
Inclination: 14.7 °
Period: 1,436.2 minutes
Semi major axis: 42167 km
RCS: 1.9952 m2 (large)
Launch date: July 21, 1988
Source: India (IND)
Launch site: FRENCH GUIANA (FRGUI)
aabbcc
Your satellite tracking list
Your tracking list is empty




NASA's NSSDC Master Catalog

Two Line Element Set (TLE):
1 19330U 88063A   18141.63604394 +.00000033 +00000-0 +00000-0 0  9997
2 19330 014.7400 352.6358 0007464 062.8145 109.0817 01.00262888090777
Source of the keplerian elements: AFSPC